TimeCST,TemperatureF,Dew PointF,Humidity,Sea Level PressureIn,VisibilityMPH,Wind Direction,Wind SpeedMPH,Gust SpeedMPH,PrecipitationIn,Events,Conditions,WindDirDegrees,DateUTC
12:53 AM,37.0,17.1,44,30.36,10.0,WSW,6.9,-,N/A,,Clear,250,2012-01-29 06:53:00
1:53 AM,37.9,16.0,41,30.34,10.0,SW,5.8,-,N/A,,Clear,230,2012-01-29 07:53:00
2:53 AM,39.0,15.1,38,30.34,10.0,WSW,8.1,-,N/A,,Clear,240,2012-01-29 08:53:00
3:53 AM,39.0,14.0,36,30.33,10.0,WSW,6.9,-,N/A,,Clear,240,2012-01-29 09:53:00
4:53 AM,39.9,12.9,33,30.33,10.0,WSW,11.5,19.6,N/A,,Clear,250,2012-01-29 10:53:00
5:53 AM,39.9,14.0,35,30.34,10.0,WSW,10.4,19.6,N/A,,Clear,250,2012-01-29 11:53:00
6:53 AM,39.0,15.1,38,30.35,10.0,WSW,10.4,-,N/A,,Clear,250,2012-01-29 12:53:00
7:53 AM,39.9,17.1,40,30.36,10.0,WSW,6.9,-,N/A,,Clear,240,2012-01-29 13:53:00
8:53 AM,45.0,17.1,33,30.34,10.0,WSW,6.9,-,N/A,,Clear,240,2012-01-29 14:53:00
9:53 AM,48.0,17.1,29,30.35,10.0,WSW,9.2,17.3,N/A,,Clear,250,2012-01-29 15:53:00
10:53 AM,52.0,18.0,26,30.33,10.0,SW,11.5,19.6,N/A,,Clear,230,2012-01-29 16:53:00
11:53 AM,54.0,15.1,22,30.31,10.0,WSW,12.7,24.2,N/A,,Clear,250,2012-01-29 17:53:00
12:53 PM,55.9,15.1,20,30.28,10.0,WSW,16.1,23.0,N/A,,Clear,240,2012-01-29 18:53:00
1:53 PM,57.9,16.0,19,30.25,10.0,WSW,9.2,21.9,N/A,,Clear,250,2012-01-29 19:53:00
2:53 PM,57.9,14.0,18,30.24,10.0,West,13.8,19.6,N/A,,Clear,260,2012-01-29 20:53:00
3:53 PM,57.9,14.0,18,30.24,10.0,West,10.4,-,N/A,,Clear,260,2012-01-29 21:53:00
4:53 PM,54.0,16.0,22,30.24,10.0,Variable,5.8,-,N/A,,Clear,0,2012-01-29 22:53:00
5:53 PM,51.1,14.0,23,30.24,10.0,WSW,4.6,-,N/A,,Clear,250,2012-01-29 23:53:00
6:53 PM,50.0,15.1,25,30.25,10.0,SSW,3.5,-,N/A,,Clear,200,2012-01-30 00:53:00
7:53 PM,48.0,19.9,33,30.25,10.0,South,6.9,-,N/A,,Clear,180,2012-01-30 01:53:00
8:53 PM,48.9,19.0,31,30.24,10.0,SW,5.8,-,N/A,,Clear,220,2012-01-30 02:53:00
9:53 PM,48.2,19.4,32,30.22,10.0,SW,8.1,-,N/A,,Clear,220,2012-01-30 03:53:00
10:53 PM,48.9,19.9,32,30.22,10.0,SSW,5.8,-,N/A,,Clear,210,2012-01-30 04:53:00
11:53 PM,48.9,21.0,33,30.22,10.0,SSW,9.2,-,N/A,,Clear,210,2012-01-30 05:53:00